Starlink 3998

operational
NORAD ID: 52610 Int'l Des: 2022-052 Owner: SPXS Country: US Constellation: starlink
LEOCIRCULAR

About Starlink 3998

Description loading...

Live Position

Loading 3D Globe...

Upcoming Passes

Altitude History

Altitude vs Time

uPlot chart will show altitude changes over time

Two-Line Element Set

1 52610U 22052N 25296.10599666 .00000356 00000-0 40445-4 0 9996
2 52610 53.2173 181.7592 0001393 84.6897 275.4254 15.08839608190016
Epoch: Oct 23, 2025 • Age: 24 hours

Current Status

Altitude 558.1 km
Velocity 7.58 km/s
Sub-Earth Point -50.49°S, 49.29°E
Launch Date May 14, 2022
Age 3.4 years
Type internet

Technical Details

Classification Payload
Mass 297.00 kg
Dry Mass 275.00 kg
Total Mass 297.00 kg
Length 0.20 m
Diameter 2.80 m
Span 9.00 m
Shape Box + pan
Manufacturer SPXS
Bus Type Starlink
Phase Status In Orbit
Owner/State SPXS/US

Large Constellations

Loading constellations...